This is the latest recevied weather packets stored in our database for station/object SR2ATJ-13. If no packets are shown the sender has not sent any weather packets the latest 10 day(s).
| Time | Temp. | Humidity | Pressure | Rain* | Wind** | Luminosity | Snow |
|---|---|---|---|---|---|---|---|
| 1777724703 | 25.56° C | 27% | 1021 hPa | - | - | - | - |
| 1777724104 | 25.56° C | 27% | 1021.2 hPa | - | - | - | - |
| 1777722903 | 25° C | 26% | 1021.4 hPa | - | - | - | - |
| 1777722303 | 25° C | 25% | 1021.5 hPa | - | - | - | - |
| 1777721705 | 25.56° C | 25% | 1021.7 hPa | - | - | - | - |
| 1777721103 | 25.56° C | 26% | 1021.8 hPa | - | - | - | - |
| 1777720503 | 25.56° C | 26% | 1021.8 hPa | - | - | - | - |
| 1777719903 | 26.11° C | 26% | 1022 hPa | - | - | - | - |
| 1777719303 | 25.56° C | 26% | 1022.1 hPa | - | - | - | - |
| 1777718705 | 25° C | 24% | 1022.2 hPa | - | - | - | - |
| 1777718105 | 25.56° C | 26% | 1022.3 hPa | - | - | - | - |
| 1777717505 | 25.56° C | 26% | 1022.4 hPa | - | - | - | - |
| 1777716304 | 25° C | 26% | 1022.5 hPa | - | - | - | - |
| 1777715704 | 25° C | 28% | 1022.7 hPa | - | - | - | - |
| 1777714503 | 23.89° C | 29% | 1022.9 hPa | - | - | - | - |
| 1777713903 | 23.89° C | 30% | 1023 hPa | - | - | - | - |
| 1777713303 | 23.89° C | 32% | 1023.1 hPa | - | - | - | - |
| 1777712703 | 22.78° C | 32% | 1023.2 hPa | - | - | - | - |
| 1777711504 | 22.22° C | 32% | 1023.4 hPa | - | - | - | - |
| 1777710903 | 21.67° C | 31% | 1023.4 hPa | - | - | - | - |
| 1777710304 | 21.67° C | 34% | 1023.5 hPa | - | - | - | - |
| 1777709704 | 21.11° C | 34% | 1023.5 hPa | - | - | - | - |
| 1777709103 | 21.11° C | 35% | 1023.6 hPa | - | - | - | - |
| 1777708503 | 20.56° C | 35% | 1023.6 hPa | - | - | - | - |
| 1777707903 | 20° C | 36% | 1023.7 hPa | - | - | - | - |
* Rain since midnight (hover to see other rain measurements)
** Current wind speed in m/s (hover to see current wind gust speed)